Regional Weather Roundup
Issued by NWS

Home | Current Version | Previous Version | Graphics & Text | Print | Product List | Glossary Off
Versions: 1 2 3 4 5 6 7 8 9 10 11 12 13 14 15 16 17 18 19 20 21 22 23 24 25 26 27 28 29 30 31 32 33 34 35 36 37 38 39 40 41 42 43 44 45 46 47 48 49 50

000
ASUS43 KMKX 201220
RWRWI

WISCONSIN REGIONAL WEATHER ROUNDUP
NATIONAL WEATHER SERVICE MILWAUKEE/SULLIVAN WI
700 AM CDT FRI APR 20 2018

NOTE: "FAIR" INDICATES FEW OR NO CLOUDS BELOW 12,000 FEET WITH NO
SIGNIFICANT WEATHER AND/OR OBSTRUCTIONS TO VISIBILITY.

WIZ001-002-006>008-014>016-023>028-201300-
NORTHWEST WISCONSIN

CITY           SKY/WX    TMP DP  RH WIND       PRES   REMARKS
SUPERIOR ARPT  FAIR      33  23  67 SW7       30.45S WCI  26
6HR MIN TEMP:  31; 6HR MAX TEMP:  36;

ASHLAND        FAIR      34  20  56 SW7       30.44S WCI  28
6HR MIN TEMP:  32; 6HR MAX TEMP:  38;

HAYWARD        FAIR      22  18  85 CALM      30.46S
6HR MIN TEMP:  20; 6HR MAX TEMP:  27;

SIREN          FAIR      26  22  85 CALM      30.48R
6HR MIN TEMP:  24; 6HR MAX TEMP:  34;

CUMBERLAND     FAIR      23  19  86 CALM      30.47R
RICE LAKE      FAIR      22  22  98 CALM      30.50R
6HR MIN TEMP:  22; 6HR MAX TEMP:  29;

CHETEK         FAIR      22  21  95 CALM      30.49R
6HR MIN TEMP:  22; 6HR MAX TEMP:  27;

LADYSMITH      FAIR      24  20  85 CALM      30.49R
6HR MIN TEMP:  21; 6HR MAX TEMP:  28;

EAU CLAIRE     FAIR      25  23  92 SW3       30.49R
6HR MIN TEMP:  24; 6HR MAX TEMP:  30;

MENOMONIE      FAIR      28  24  88 CALM      30.51R
6HR MIN TEMP:  26; 6HR MAX TEMP:  32;

NEW RICHMOND   FAIR      26  23  88 CALM      30.50R
6HR MIN TEMP:  25; 6HR MAX TEMP:  28;

OSCEOLA        FAIR      25  22  89 CALM      30.53R
6HR MIN TEMP:  24; 6HR MAX TEMP:  29;

$$

WIZ003>005-009-010-017-018-201300-
NORTH CENTRAL WISCONSIN

CITY           SKY/WX    TMP DP  RH WIND       PRES   REMARKS
MANITOWISH WTR FAIR      17  13  84 CALM      30.44R
6HR MIN TEMP:  15; 6HR MAX TEMP:  22;

ARBOR VITAE    FAIR      22  13  69 CALM      30.44S
6HR MIN TEMP:  20; 6HR MAX TEMP:  27;

WOODRUFF       FAIR      22  13  69 CALM      30.44S
6HR MIN TEMP:  20; 6HR MAX TEMP:  27;

RHINELANDER    FAIR      20  12  71 CALM      30.44S
6HR MIN TEMP:  17; 6HR MAX TEMP:  27;

EAGLE RIVER    FAIR      19  14  83 CALM      30.43S
6HR MIN TEMP:  16; 6HR MAX TEMP:  22;

LAND O LAKES   FAIR      18  12  78 CALM      30.46R
6HR MIN TEMP:  12; 6HR MAX TEMP:  19;

PHILLIPS       FAIR      19  16  90 CALM      30.45S
6HR MIN TEMP:  16; 6HR MAX TEMP:  23;

TOMAHAWK       FAIR      14  11  86 CALM      30.46S
6HR MIN TEMP:  13; 6HR MAX TEMP:  21;

MEDFORD        FAIR      22  17  82 CALM      30.45S
6HR MIN TEMP:  20; 6HR MAX TEMP:  31;

MERRILL          N/A     20  16  82 CALM      30.47S
6HR MIN TEMP:  15; 6HR MAX TEMP:  26;

$$

WIZ029-030-035-036-043>047-201300-
CENTRAL WISCONSIN

CITY           SKY/WX    TMP DP  RH WIND       PRES   REMARKS
WAUSAU         FAIR      23  20  88 CALM      30.45S
6HR MIN TEMP:  22; 6HR MAX TEMP:  33;

MOSINEE        CLEAR     28  19  69 CALM      30.46F
MARSHFIELD     FAIR      28  16  60 NW5       30.45S WCI  23
6HR MIN TEMP:  25; 6HR MAX TEMP:  31;

STEVENS POINT  FAIR      18  17  97 CALM      30.48R
6HR MIN TEMP:  17; 6HR MAX TEMP:  25;

WAUPACA        FAIR      28  20  72 CALM      30.47S
6HR MIN TEMP:  25; 6HR MAX TEMP:  38;

WAUTOMA        FAIR      23  19  85 CALM      30.48S
6HR MIN TEMP:  22; 6HR MAX TEMP:  35;

WISC RAPIDS    FAIR      21  17  84 CALM      30.48S
6HR MIN TEMP:  20; 6HR MAX TEMP:  28;

CAMP DOUGLAS   CLEAR     21  18  86 CALM      30.49R
$$

WIZ011>013-019>022-031-037>040-048>050-201300-
NORTHEAST WISCONSIN

CITY           SKY/WX    TMP DP  RH WIND       PRES   REMARKS
ANTIGO         FAIR      19  15  84 CALM      30.45S
6HR MIN TEMP:  18; 6HR MAX TEMP:  24;

SHAWANO        FAIR      24  20  86 CALM      30.47S
6HR MIN TEMP:  22; 6HR MAX TEMP:  29;

OCONTO         FAIR      18  13  82 CALM      30.47S
6HR MIN TEMP:  17; 6HR MAX TEMP:  26;

STURGEON BAY   FAIR      29  19  66 SW5       30.48R WCI  24
6HR MIN TEMP:  25; 6HR MAX TEMP:  36;

GREEN BAY      FAIR      23  21  92 CALM      30.48R
6HR MIN TEMP:  21; 6HR MAX TEMP:  29;

MANITOWOC      FAIR      26  21  81 CALM      30.49R
6HR MIN TEMP:  24; 6HR MAX TEMP:  29;

APPLETON       CLEAR     28  16  59 VRB5      30.45S WCI  23
CLINTONVILLE   FAIR      21  17  85 CALM      30.47S
6HR MIN TEMP:  19; 6HR MAX TEMP:  31;

OSHKOSH        FAIR      28  20  71 CALM      30.47R
6HR MIN TEMP:  25; 6HR MAX TEMP:  35;

$$

WIZ032>034-041-042-053>061-201300-
SOUTHWEST WISCONSIN

CITY           SKY/WX    TMP DP  RH WIND       PRES   REMARKS
LA CROSSE      FAIR      28  25  88 CALM      30.52R
6HR MIN TEMP:  24; 6HR MAX TEMP:  32;

SPARTA         FAIR      17  16  93 CALM      30.52R
6HR MIN TEMP:  16; 6HR MAX TEMP:  23;

VIROQUA        FAIR      29  24  79 W5        30.49R WCI  24
6HR MIN TEMP:  27; 6HR MAX TEMP:  35;

BOSCOBEL       FAIR      24  22  91 CALM      30.53R
6HR MIN TEMP:  21; 6HR MAX TEMP:  28;

PRAIRIE DU CHI FAIR      25  22  88 CALM      30.52S
6HR MIN TEMP:  25; 6HR MAX TEMP:  29;

PLATTEVILLE    FAIR      29  26  90 N3        30.50S
6HR MIN TEMP:  29; 6HR MAX TEMP:  35;

$$

WIZ056-057-062-063-064-067-068-201300-
SOUTH CENTRAL WISCONSIN

CITY           SKY/WX    TMP DP  RH WIND       PRES   REMARKS
REEDSBURG      FAIR      22  22 100 CALM      30.50R
6HR MIN TEMP:  20; 6HR MAX TEMP:  27;

BARABOO/DELLS  FAIR      22  19  87 CALM      30.48S
6HR MIN TEMP:  21; 6HR MAX TEMP:  28;

LONE ROCK      FAIR      23  23 100 W3        30.52R
6HR MIN TEMP:  21; 6HR MAX TEMP:  27;

MINERAL POINT  FAIR      32  27  80 CALM      30.49R
MADISON        FAIR      25  22  88 CALM      30.49R
6HR MIN TEMP:  22; 6HR MAX TEMP:  30;

MIDDLETON      FAIR      28  23  82 CALM      30.49S
6HR MIN TEMP:  26; 6HR MAX TEMP:  30;

WATERTOWN      FAIR      21  21  98 CALM      30.48S
6HR MIN TEMP:  19; 6HR MAX TEMP:  26;

MONROE         FAIR      37  19  48 NW6       30.48R WCI  33
JANESVILLE     CLEAR     27  27 100 CALM      30.49S
$$

WIZ051-052-058>065-066-070>072-201300-
SOUTHEAST WISCONSIN

CITY           SKY/WX    TMP DP  RH WIND       PRES   REMARKS
MILWAUKEE      FAIR      35  25  66 CALM      30.49R
6HR MIN TEMP:  30; 6HR MAX TEMP:  40;

WAUKESHA       CLEAR     30  19  64 CALM      30.49R
MILWAUKEE/TIMM FAIR      30  21  69 CALM      30.49S
RACINE         FAIR      33  26  75 NW3       30.50R
6HR MIN TEMP:  29; 6HR MAX TEMP:  38;

BURLINGTON     FAIR      28  22  81 CALM      30.49S
6HR MIN TEMP:  26; 6HR MAX TEMP:  36;

KENOSHA        FAIR      32  24  72 W3        30.49R
6HR MIN TEMP:  29; 6HR MAX TEMP:  37;

FOND DU LAC    FAIR      23  19  85 S3        30.48R
6HR MIN TEMP:  21; 6HR MAX TEMP:  31;

SHEBOYGAN      FAIR      27  24  89 W3        30.48R
6HR MIN TEMP:  25; 6HR MAX TEMP:  39;

WEST BEND      FAIR      27  27 100 CALM      30.48S
JUNEAU         FAIR      27  22  82 CALM      30.49S
6HR MIN TEMP:  25; 6HR MAX TEMP:  31;

$$

LSZ147-162-201300-
LAKE SUPERIOR

STATION/POSITION TIME  TEMP    WIND        PRES    WAVE
                       AIR SEA DIR/SP/G            HT/PER
                 (UTC) (F)     (DEG/KT/KT) (MB)    (FT/S)
DEVILS ISLAND    1200   40     240/ 13/ 13 1031.3R
SAXON HARBOR     1140   30     180/  4/  5 1030.1R
$$

LMZ867-665-643>646-201300-
LAKE MICHIGAN

STATION/POSITION TIME  TEMP    WIND        PRES    WAVE
                       AIR SEA DIR/SP/G            HT/PER




USA.gov is the U.S. government's official web portal to all federal, state and local government web resources and services.